GW1055 Weather Reports


Display with metric or nautical units.
time (UTC)temp
F
wind
direction
speed
MPH
gust
MPH
rain 1hr
in
rain 24hr
in
rain mn
in
humidity
%
barometer
mb
20260506073510 56 0 0.0 0.0 0.00 0.00 0.00 88 1018.8
20260506073040 57 0 0.0 0.0 0.00 0.00 0.00 88 1018.8
20260506072510 57 0 0.0 0.0 0.00 0.00 0.00 88 1018.7
20260506072019 57 0 0.0 0.0 0.00 0.00 0.00 87 1018.7
20260506071530 57 0 0.0 0.0 0.00 0.00 0.00 87 1018.7
20260506071013 57 0 0.0 0.0 0.00 0.00 0.00 87 1018.6
20260506070511 57 0 0.0 0.0 0.00 0.00 0.00 87 1018.5
20260506062509 57 0 0.0 0.0 0.00 0.00 0.00 87 1018.3
20260506062009 57 0 0.0 1.0 0.00 0.00 0.00 86 1018.2
20260506061528 57 0 0.0 1.0 0.00 0.00 0.00 86 1018.3
20260506061010 57 0 0.0 0.0 0.00 0.00 0.00 86 1018.2
20260506060510 57 0 0.0 0.0 0.00 0.00 0.00 86 1018.2
20260506051009 57 0 0.0 0.0 0.00 0.00 0.00 87 1017.7
20260506050510 57 0 0.0 0.0 0.00 0.00 0.00 87 1017.6
20260506045011 57 0 0.0 0.0 0.00 0.00 0.00 86 1017.5
20260506044559 57 0 0.0 0.0 0.00 0.00 0.00 86 1017.5
20260506044009 57 0 0.0 1.0 0.00 0.00 0.00 86 1017.5
20260506043510 57 0 0.0 1.0 0.00 0.00 0.00 86 1017.5
20260506043026 57 0 0.0 0.0 0.00 0.00 0.00 86 1017.4
20260506042509 57 0 0.0 1.0 0.00 0.00 0.00 86 1017.3
20260506042011 57 0 0.0 1.0 0.00 0.00 0.00 86 1017.4
20260506041527 57 0 0.0 0.0 0.00 0.00 0.00 86 1017.2
20260506041014 57 0 0.0 0.0 0.00 0.00 0.00 86 1017.1
20260506040510 57 0 0.0 0.0 0.00 0.00 0.00 86 1017.0
20260506040029 58 0 0.0 0.0 0.00 0.00 0.00 86 1017.0
20260506035509 58 0 0.0 1.0 0.00 0.00 0.00 85 1016.9
20260506035007 58 0 0.0 1.0 0.00 0.00 0.00 84 1016.8
20260506034558 58 0 0.0 0.0 0.00 0.00 0.00 84 1016.8
20260506034010 58 0 0.0 0.0 0.00 0.00 0.00 84 1016.7
20260506033510 58 0 0.0 0.0 0.00 0.00 0.00 84 1016.7
20260506033032 58 0 0.0 1.0 0.00 0.00 0.00 84 1016.7
20260506032511 58 0 0.0 1.0 0.00 0.00 0.00 84 1016.7
20260506032011 58 0 0.0 1.0 0.00 0.00 0.00 83 1016.6
20260506031528 58 0 0.0 1.0 0.00 0.00 0.00 83 1016.5
20260506031011 58 0 0.0 1.0 0.00 0.00 0.00 83 1016.4
20260506030510 58 0 0.0 1.0 0.00 0.00 0.00 82 1016.4
20260506030028 59 0 0.0 0.0 0.00 0.00 0.00 83 1016.3
20260506025512 59 0 0.0 1.0 0.00 0.00 0.00 82 1016.2
20260506025010 59 0 0.0 1.0 0.00 0.00 0.00 81 1016.3
20260506024530 59 0 0.0 1.0 0.00 0.00 0.00 81 1016.2
20260506024015 59 140 0.0 0.0 0.00 0.00 0.00 80 1016.1
20260506023513 59 0 0.0 1.0 0.00 0.00 0.00 80 1015.9
20260506023029 60 0 0.0 1.0 0.00 0.00 0.00 80 1015.9
20260506022510 60 0 0.0 1.0 0.00 0.00 0.00 79 1015.8
20260506022009 60 0 0.0 1.0 0.00 0.00 0.00 78 1015.9
20260506021532 60 0 0.0 1.0 0.00 0.00 0.00 79 1015.8
20260506021012 60 0 0.0 1.0 0.00 0.00 0.00 78 1015.8
20260506020509 60 0 0.0 1.0 0.00 0.00 0.00 78 1015.7
20260506020031 61 0 0.0 1.0 0.00 0.00 0.00 78 1015.5
20260506015507 61 170 0.0 1.0 0.00 0.00 0.00 76 1015.7
20260506015011 61 309 0.0 1.0 0.00 0.00 0.00 77 1015.6
20260506014531 61 142 0.0 1.0 0.00 0.00 0.00 75 1015.5
20260506014011 61 0 0.0 4.0 0.00 0.00 0.00 77 1015.6
20260506013509 61 0 0.0 4.0 0.00 0.00 0.00 76 1015.5
20260506013027 61 119 0.0 4.0 0.00 0.00 0.00 75 1015.4
20260506012509 62 0 0.0 4.0 0.00 0.00 0.00 73 1015.6
20260506012010 62 169 0.0 4.0 0.00 0.00 0.00 76 1015.6
20260506011527 62 153 0.0 1.0 0.00 0.00 0.00 75 1015.5
20260506011012 62 0 0.0 1.0 0.00 0.00 0.00 76 1015.4
20260506010507 62 0 0.0 1.0 0.00 0.00 0.00 75 1015.4
20260506010027 62 0 0.0 1.0 0.00 0.00 0.00 76 1015.4
20260506005509 62 0 0.0 1.0 0.00 0.00 0.00 76 1015.5
20260506005010 62 0 0.0 1.0 0.00 0.00 0.00 74 1015.6
20260506004539 62 0 0.0 1.0 0.00 0.00 0.00 73 1015.5
20260506004012 62 0 0.0 0.0 0.00 0.00 0.00 74 1015.5
20260506003511 62 0 0.0 0.0 0.00 0.00 0.00 75 1015.4
20260506003041 62 0 0.0 1.0 0.00 0.00 0.00 73 1015.5
20260506002511 62 0 0.0 1.0 0.00 0.00 0.00 75 1015.4
20260506002012 62 0 0.0 1.0 0.00 0.00 0.00 74 1015.4
20260506001527 62 0 0.0 1.0 0.00 0.00 0.00 73 1015.4
20260506001010 62 284 0.0 1.0 0.00 0.00 0.00 76 1015.3
20260506000510 62 0 0.0 1.0 0.00 0.00 0.00 74 1015.2
20260506000027 62 0 0.0 1.0 0.00 0.00 0.00 76 1015.3
20260505235511 62 0 0.0 1.0 0.00 0.00 0.00 76 1015.3
20260505235011 61 0 0.0 1.0 0.00 0.00 0.00 75 1015.4
20260505234539 61 0 0.0 1.0 0.00 0.00 0.00 78 1015.5
20260505234018 61 0 0.0 1.0 0.00 0.00 0.00 75 1015.4
20260505233515 61 0 0.0 1.0 0.00 0.00 0.00 74 1015.4
20260505233027 61 0 0.0 1.0 0.00 0.00 0.00 75 1015.5
20260505232513 61 0 0.0 1.0 0.00 0.00 0.00 75 1015.4
20260505232011 61 0 0.0 1.0 0.00 0.00 0.00 77 1015.4
20260505231530 61 0 0.0 1.0 0.00 0.00 0.00 77 1015.4
20260505231009 61 286 0.0 1.0 0.00 0.00 0.00 76 1015.5
20260505230509 61 288 0.0 1.0 0.00 0.00 0.00 77 1015.5
20260505230038 61 288 0.0 1.0 0.00 0.00 0.00 77 1015.4
20260505225517 61 0 0.0 1.0 0.00 0.00 0.00 77 1015.4
20260505225010 61 288 0.0 1.0 0.00 0.00 0.00 77 1015.5
20260505224530 61 279 0.0 0.0 0.00 0.00 0.00 77 1015.5
20260505224013 61 0 0.0 1.0 0.00 0.00 0.00 78 1015.5
20260505223510 61 0 0.0 1.0 0.00 0.00 0.00 76 1015.5
20260505223030 61 0 0.0 1.0 0.00 0.00 0.00 74 1015.5
20260505222510 61 0 0.0 1.0 0.00 0.00 0.00 75 1015.6
20260505222011 61 0 0.0 2.0 0.00 0.00 0.00 76 1015.6
20260505221528 61 0 0.0 2.0 0.00 0.00 0.00 76 1015.6
20260505221011 61 279 0.0 2.0 0.00 0.00 0.00 74 1015.7
20260505220512 61 0 0.0 0.0 0.00 0.00 0.00 78 1015.6
20260505220038 61 0 0.0 0.0 0.00 0.00 0.00 77 1015.7
20260505215510 61 0 0.0 0.0 0.00 0.00 0.00 77 1015.8
20260505215010 61 0 0.0 1.0 0.00 0.00 0.00 78 1015.8
20260505214535 61 0 0.0 1.0 0.00 0.00 0.00 76 1015.9
20260505214010 61 0 0.0 0.0 0.00 0.00 0.00 77 1015.9
20260505213508 61 0 0.0 0.0 0.00 0.00 0.00 76 1015.9
20260505213028 61 0 0.0 0.0 0.00 0.00 0.00 77 1015.9
20260505212515 61 0 0.0 0.0 0.00 0.00 0.00 76 1015.9
20260505212015 61 0 0.0 3.0 0.00 0.00 0.00 76 1015.8
20260505211526 61 0 0.0 3.0 0.00 0.00 0.00 75 1015.9
20260505211009 62 0 0.0 0.0 0.00 0.00 0.00 77 1015.8
20260505210506 62 0 0.0 1.0 0.00 0.00 0.00 77 1015.7
20260505210029 62 0 0.0 1.0 0.00 0.00 0.00 75 1015.8
20260505205510 62 0 0.0 1.0 0.00 0.00 0.00 76 1015.8
20260505205010 62 0 0.0 1.0 0.00 0.00 0.00 76 1015.7
20260505204530 61 0 0.0 1.0 0.00 0.00 0.00 76 1015.8
20260505204011 61 245 0.0 0.0 0.00 0.00 0.00 79 1015.8
20260505203512 61 0 0.0 1.0 0.00 0.00 0.00 75 1015.7
20260505203029 61 0 0.0 2.0 0.00 0.00 0.00 75 1015.8
20260505202508 61 0 0.0 2.0 0.00 0.00 0.00 76 1015.8
20260505202012 61 0 0.0 2.0 0.00 0.00 0.00 75 1015.8
20260505201526 61 0 0.0 2.0 0.00 0.00 0.00 77 1015.8
20260505201011 61 0 0.0 1.0 0.00 0.00 0.00 78 1015.8
20260505200513 61 0 0.0 1.0 0.00 0.00 0.00 77 1015.8
20260505200029 60 0 0.0 2.0 0.00 0.00 0.00 79 1015.9
20260505195509 60 0 0.0 2.0 0.00 0.00 0.00 79 1015.9
20260505195016 60 267 0.0 2.0 0.00 0.00 0.00 77 1015.9
20260505194535 60 0 0.0 1.0 0.00 0.00 0.00 79 1015.9
20260505194011 59 254 0.0 2.0 0.00 0.00 0.00 79 1016.0
20260505193509 59 254 0.0 2.0 0.00 0.00 0.00 81 1015.9
20260505193038 60 0 0.0 2.0 0.00 0.00 0.00 80 1016.0
20260505192512 60 0 0.0 2.0 0.00 0.00 0.00 80 1016.0
20260505192007 59 0 0.0 2.0 0.00 0.00 0.00 80 1016.0
20260505191541 59 0 0.0 1.0 0.00 0.00 0.00 81 1015.9
20260505191014 59 0 0.0 4.0 0.00 0.00 0.00 81 1016.0
20260505190508 58 0 0.0 4.0 0.00 0.00 0.00 82 1015.9
20260505190028 59 281 0.0 3.0 0.00 0.00 0.00 82 1015.9
20260505185512 59 0 0.0 3.0 0.00 0.00 0.00 79 1015.9
20260505185010 60 284 0.0 1.0 0.00 0.00 0.00 78 1015.9
20260505184529 60 0 0.0 2.0 0.00 0.00 0.00 78 1015.8
20260505184014 60 0 0.0 2.0 0.00 0.00 0.00 79 1015.8
20260505183511 61 297 1.0 2.0 0.00 0.00 0.00 76 1015.8
20260505183030 62 0 0.0 2.0 0.00 0.00 0.00 74 1015.8
20260505182529 63 294 0.0 3.0 0.00 0.00 0.00 79 1015.8
20260505182016 63 183 0.0 3.0 0.00 0.00 0.00 75 1015.9
20260505181530 61 188 0.0 2.0 0.00 0.00 0.00 80 1015.8
20260505181010 60 0 0.0 2.0 0.00 0.00 0.00 81 1015.8
20260505180510 60 0 0.0 2.0 0.00 0.00 0.00 84 1015.8
20260505180042 59 0 0.0 2.0 0.00 0.00 0.00 82 1015.8
20260505175509 59 177 0.0 2.0 0.00 0.00 0.00 80 1015.8
20260505175011 60 0 0.0 0.0 0.00 0.00 0.00 81 1015.8
20260505174537 60 0 0.0 0.0 0.00 0.00 0.00 81 1015.7
20260505174011 59 0 0.0 0.0 0.00 0.00 0.00 83 1015.7
20260505173508 59 0 0.0 3.0 0.00 0.00 0.00 84 1015.7
20260505173028 59 0 0.0 3.0 0.00 0.00 0.00 84 1015.7
20260505172509 58 0 0.0 2.0 0.00 0.00 0.00 84 1015.6
20260505172010 58 0 0.0 2.0 0.00 0.00 0.00 88 1015.6
20260505171533 57 0 0.0 2.0 0.00 0.00 0.00 84 1015.7
20260505171010 57 0 0.0 2.0 0.00 0.00 0.00 85 1015.6
20260505170510 57 137 0.0 2.0 0.00 0.00 0.00 82 1015.7
20260505170032 57 144 0.0 2.0 0.00 0.00 0.00 89 1015.7
20260505165513 56 141 0.0 2.0 0.00 0.00 0.00 87 1015.6
20260505165011 56 0 0.0 2.0 0.00 0.00 0.00 88 1015.7
20260505164528 55 136 0.0 2.0 0.00 0.00 0.00 91 1015.6
20260505164011 55 0 0.0 2.0 0.00 0.00 0.00 93 1015.6
20260505163510 54 0 0.0 1.0 0.00 0.00 0.00 95 1015.6
20260505163028 53 144 0.0 1.0 0.00 0.00 0.00 94 1015.6
20260505162509 53 0 0.0 1.0 0.00 0.00 0.00 95 1015.6
20260505162010 53 144 0.0 1.0 0.00 0.00 0.00 96 1015.6
20260505161527 53 0 0.0 1.0 0.00 0.00 0.00 96 1015.5
20260505161010 52 147 0.0 1.0 0.00 0.00 0.00 96 1015.5
20260505160510 52 133 0.0 1.0 0.00 0.00 0.00 96 1015.5
20260505153034 51 0 0.0 1.0 0.00 0.00 0.00 96 1015.6
20260505152516 51 0 0.0 1.0 0.00 0.00 0.00 96 1015.5
20260505152013 51 0 0.0 1.0 0.00 0.00 0.00 96 1015.4
20260505151531 51 0 0.0 1.0 0.00 0.00 0.00 96 1015.4
20260505151012 51 0 0.0 0.0 0.00 0.00 0.00 97 1015.4
20260505150510 51 0 0.0 1.0 0.00 0.00 0.00 97 1015.3
20260505140511 50 0 0.0 1.0 0.00 0.00 0.00 96 1014.7
20260505125011 50 0 0.0 0.0 0.00 0.00 0.00 96 1014.5
20260505124528 50 0 0.0 0.0 0.00 0.00 0.00 96 1014.4
20260505124011 50 0 0.0 0.0 0.00 0.00 0.00 96 1014.3
20260505123510 50 0 0.0 0.0 0.00 0.00 0.00 96 1014.3
20260505123049 50 0 0.0 0.0 0.00 0.00 0.00 96 1014.2
20260505122510 50 0 0.0 0.0 0.00 0.00 0.00 96 1014.3
20260505122010 50 0 0.0 0.0 0.00 0.00 0.00 96 1014.2
20260505121529 50 0 0.0 0.0 0.00 0.00 0.00 96 1014.1
20260505121007 50 0 0.0 0.0 0.00 0.00 0.00 96 1014.0
20260505120515 50 0 0.0 0.0 0.00 0.00 0.00 96 1014.1
20260505120030 50 0 0.0 0.0 0.00 0.00 0.00 96 1014.1
20260505115510 50 0 0.0 0.0 0.00 0.00 0.00 96 1014.1
20260505115020 50 0 0.0 1.0 0.00 0.00 0.00 96 1014.0
20260505114528 50 0 0.0 1.0 0.00 0.00 0.00 96 1014.2
20260505114010 50 0 0.0 1.0 0.00 0.00 0.00 96 1014.3
20260505113508 50 0 0.0 1.0 0.00 0.00 0.00 96 1014.2
20260505113034 50 0 0.0 1.0 0.00 0.00 0.00 96 1014.2
20260505112507 50 0 0.0 1.0 0.00 0.00 0.00 96 1014.3
20260505112015 50 82 0.0 1.0 0.00 0.00 0.00 96 1014.3
20260505111549 50 0 0.0 1.0 0.00 0.00 0.00 96 1014.3
20260505111008 50 263 0.0 1.0 0.00 0.00 0.00 96 1014.4
20260505110508 50 0 0.0 1.0 0.00 0.00 0.00 96 1014.3
20260505102016 50 41 0.0 1.0 0.00 0.00 0.00 96 1014.2
20260505101533 50 0 0.0 1.0 0.00 0.00 0.00 96 1014.2
20260505101010 50 0 0.0 1.0 0.00 0.00 0.00 96 1014.3
20260505100510 50 0 0.0 1.0 0.00 0.00 0.00 96 1014.2
20260505100033 50 0 0.0 1.0 0.00 0.00 0.00 96 1014.4
20260505095508 50 0 0.0 1.0 0.00 0.01 0.00 96 1014.3
20260505095008 50 0 0.0 1.0 0.00 0.01 0.00 96 1014.3
20260505094528 50 0 0.0 1.0 0.00 0.01 0.00 96 1014.2
20260505094015 50 0 0.0 1.0 0.00 0.01 0.00 96 1014.4
20260505093512 50 102 0.0 1.0 0.00 0.01 0.00 96 1014.3
20260505093029 50 104 0.0 2.0 0.00 0.01 0.00 96 1014.3
20260505092510 50 107 0.0 2.0 0.00 0.01 0.00 96 1014.4
20260505092014 50 73 0.0 1.0 0.00 0.01 0.00 96 1014.5
20260505091532 50 0 0.0 1.0 0.00 0.01 0.00 96 1014.5
20260505091011 50 0 0.0 1.0 0.00 0.01 0.00 96 1014.5
20260505090508 50 0 0.0 1.0 0.00 0.01 0.00 96 1014.7
20260505090034 50 0 0.0 1.0 0.00 0.01 0.00 96 1014.9
20260505085511 50 78 0.0 1.0 0.00 0.01 0.00 96 1014.9
20260505085015 50 0 0.0 1.0 0.00 0.01 0.00 96 1015.0
20260505084527 50 72 0.0 1.0 0.00 0.01 0.00 96 1015.0
20260505084011 50 0 0.0 1.0 0.00 0.01 0.00 96 1015.0
20260505083514 50 0 0.0 1.0 0.00 0.01 0.00 96 1015.0
20260505083033 50 0 0.0 1.0 0.00 0.01 0.00 96 1015.2
20260505082507 50 0 0.0 1.0 0.00 0.01 0.00 96 1015.2
20260505082012 50 0 0.0 1.0 0.00 0.01 0.00 96 1015.3
20260505081532 50 78 0.0 1.0 0.00 0.01 0.00 96 1015.3
20260505081014 50 78 0.0 1.0 0.00 0.01 0.00 96 1015.3
20260505080513 50 0 0.0 1.0 0.00 0.01 0.00 96 1015.0